Location: Starry Hill Observatory
(46.8582°N, 122.3590°W)
Time: 01:40:42
(UTC-07:00)

Daily predictions for brighter satellites

Satellite Brightness Start Highest point End
(mag) Time Altitude Azimuth Time Altitude Azimuth Time Altitude Azimuth
Cosmos 192 4.3 00:00:22 10° NNW 00:05:18 84° WSW 00:07:20 36° SSE
Cosmos 1269 Rocket 4.1 00:02:56 10° NNW 00:08:15 69° ENE 00:10:47 31° SE
ATLAS 2AS CENTAUR R/B 3.2 00:04:19 25° S 00:08:37 51° ESE 00:16:21 10° NE
Cosmos 990 Rocket 4.0 00:13:12 25° SSW 00:16:16 78° WNW 00:21:27 10° NNE
Lacrosse 4 Rocket 2.1 00:15:56 10° NNW 00:20:16 53° NE 00:22:17 29° ESE
Cosmos 2221 Rocket 3.6 00:20:03 10° N 00:24:39 83° W 00:26:10 42° S
CZ-4B R/B 1.8 00:25:04 48° ESE 00:25:41 57° ENE 00:29:07 10° N
CZ-4C R/B 4.2 00:21:53 10° NNW 00:27:57 34° NNE 00:34:40 10° E
Cosmos 2074 Rocket 4.4 00:25:55 30° SSE 00:28:47 52° E 00:34:52 10° NNE
Landsat 5 3.9 00:27:29 37° SE 00:29:04 60° ENE 00:33:32 10° N
Cosmos 1626 3.6 00:28:37 21° WSW 00:30:19 31° WNW 00:33:44 10° N
USA 238 DEB 4.4 00:24:04 10° NW 00:30:57 53° NE 00:37:39 11° ESE
USA 238 4.4 00:24:09 10° NW 00:31:03 53° NE 00:37:48 10° ESE
ATLAS 3B R/B 2.7 00:24:29 10° NW 00:31:38 88° NE 00:35:37 27° SE
Cosmos 1703 Rocket 3.7 00:28:09 10° NNW 00:32:28 64° W 00:33:47 42° SSW
Aureole 2 Rocket 3.9 00:30:21 10° N 00:32:53 24° ENE 00:33:34 22° E
H-2A R/B 2.6 00:29:03 10° NNE 00:33:10 62° ESE 00:34:10 46° SSE
NOSS 3-1 (C) 4.3 00:29:00 10° WSW 00:34:52 51° NW 00:41:29 10° NE
Cosmos 1709 Rocket 4.1 00:31:46 27° SSW 00:35:18 68° WNW 00:41:24 10° N
BREEZE-M DEB (TANK) 2.7 00:36:58 36° E 00:36:58 36° E 00:40:11 10° ENE
Cosmos 2227 Rocket 2.4 00:36:30 22° SW 00:40:14 69° WNW 00:45:56 10° NNE
Cosmos 2333 Rocket 3.2 00:35:53 10° NW 00:41:02 35° WSW 00:43:12 26° SW
Cosmos 1048 Rocket 4.0 00:36:01 10° NNW 00:41:22 80° WSW 00:43:30 38° S
Okean 1-7 2.9 00:37:16 10° N 00:41:35 82° W 00:42:42 49° S
Cosmos 1125 Rocket 3.5 00:39:32 36° S 00:41:44 79° ESE 00:47:04 10° NNE
Cosmos 1689 Rocket 2.1 00:43:17 78° S 00:43:30 89° W 00:46:49 10° NNW
Cosmos 1455 4.4 00:42:45 10° NW 00:45:08 16° W 00:46:25 14° WSW
CZ-4C R/B 3.5 00:48:03 44° WSW 00:48:22 45° W 00:51:47 10° NNW
SL-16 R/B 2.2 00:43:22 10° NNW 00:49:03 73° WSW 00:51:21 37° S
Cosmos 2181 Rocket 4.5 00:43:27 10° NNW 00:49:35 53° W 00:52:48 28° SSW
Meteor 1-26 Rocket 4.4 00:51:13 10° NNW 00:56:44 64° W 00:59:02 35° SSW
SeaSat 1 3.9 01:00:57 21° SW 01:02:06 23° WSW 01:05:59 10° NW
COSMOS 2455 3.0 00:56:28 10° NW 01:02:23 58° WSW 01:04:42 36° S
USA 234 3.7 00:56:57 10° ESE 01:03:22 62° NNE 01:09:49 10° NW
Cosmos 2184 Rocket 3.9 01:02:44 34° S 01:05:39 90° W 01:11:54 10° N
Cosmos 2297 Rocket 2.6 01:04:32 23° SW 01:08:04 60° WNW 01:13:42 10° NNE
Helios 1A Rocket 2.9 01:04:32 10° NNE 01:08:43 80° ESE 01:09:41 52° S
NOSS 2-3 (C) 4.2 01:08:57 41° S 01:10:24 55° ESE 01:16:03 10° NE
FALCON 9 R/B 3.8 01:03:52 10° W 01:12:16 24° SW 01:12:16 24° SW
Cosmos 1606 4.1 01:11:49 10° N 01:15:17 31° ENE 01:16:32 25° ESE
Cosmos 1943 4.4 01:10:12 10° NNW 01:15:29 37° NE 01:20:39 10° ESE
Cosmos 2219 Rocket 4.2 01:13:21 10° WNW 01:15:59 14° W 01:17:49 12° WSW
ERBS 2.2 01:16:04 72° WSW 01:16:23 87° NW 01:19:53 10° NE
Cosmos 921 Rocket 4.3 01:16:07 24° ESE 01:16:48 26° E 01:20:17 10° NE
Cosmos 44 Rocket 3.7 01:16:16 40° SSE 01:17:38 51° ESE 01:22:42 10° NE
CZ-2C R/B 3.6 01:17:39 28° SE 01:20:44 64° ENE 01:26:21 10° N
Sich 1 Rocket 4.3 01:20:33 35° SE 01:21:48 44° E 01:26:06 10° NNE
CZ-2C R/B 2.6 01:16:42 10° NNE 01:21:58 67° ESE 01:23:52 39° S
Cosmos 1603 3.7 01:16:41 10° NNW 01:22:23 85° ENE 01:25:14 31° SSE
Cosmos 372 Rocket 4.0 01:22:57 35° SSW 01:25:12 77° WNW 01:30:28 10° NNE
Meteor 1-10 Rocket 4.3 01:21:20 10° N 01:27:18 90° ENE 01:30:01 35° S
ASTEX 1 3.9 01:24:03 10° N 01:28:47 50° WNW 01:30:41 32° SW
Cosmos 158 Rocket 4.1 01:23:39 10° NNW 01:28:54 60° WSW 01:30:37 40° SSW
Cosmos 2084 Rocket 4.3 01:29:56 29° ESE 01:29:56 29° ESE 01:33:03 10° ENE
NOSS 2-3 (D) 4.0 01:29:31 39° SSW 01:31:25 75° SE 01:37:16 10° NE
Meteor 2-10 Rocket 3.7 01:26:29 10° NNW 01:31:57 69° W 01:34:13 37° S
Cosmos 389 Rocket 4.2 01:29:19 10° NW 01:32:10 22° W 01:32:23 22° W
PSLV R/B 4.2 01:31:16 39° SE 01:32:33 62° ENE 01:36:35 10° N
Meteor 2-3 Rocket 4.1 01:30:19 31° SW 01:33:03 60° WNW 01:38:45 10° N
MOS 1-B Rocket 3.9 01:32:00 35° S 01:34:26 65° WSW 01:40:01 10° NNW
Cosmos 1892 2.7 01:35:28 54° SW 01:36:08 68° W 01:39:57 10° N
Coronas F rocket 1.9 01:37:54 57° N 01:37:54 57° N 01:40:10 10° N
Cosmos 2251 Rocket 3.6 01:33:04 10° NNW 01:38:23 66° WSW 01:40:17 39° S
ALOS 2 4.2 01:37:54 20° WSW 01:38:49 21° W 01:42:12 10° NW
Cosmos 1782 2.7 01:35:32 10° NNW 01:39:31 80° W 01:40:18 56° S
Cosmos 2237 Rocket 4.2 01:39:15 10° WNW 01:41:44 13° W 01:43:17 12° WSW
Cosmos 1238 Rocket 3.0 01:37:23 10° N 01:41:54 69° E 01:42:56 46° SE
Cosmos 1733 Rocket 3.2 01:43:53 42° SW 01:45:13 64° W 01:49:41 10° N
Cosmos 1340 Rocket 3.1 01:49:08 42° WSW 01:50:02 53° WNW 01:53:55 10° N
Cosmos 1378 Rocket 3.5 01:52:26 10° N 01:56:52 85° E 01:58:19 42° SSE
Lacrosse 4 Rocket 3.1 01:55:26 10° WNW 01:58:37 20° WSW 01:58:37 20° WSW
CZ-4B R/B 4.1 01:58:49 11° W 01:58:51 11° W 01:59:42 10° WNW
ATLAS 2AS CENTAUR R/B 3.7 01:52:14 10° WSW 01:59:46 52° NW 02:07:43 10° NE
Okean 2 Rocket 3.7 02:04:18 32° SSE 02:06:04 50° E 02:10:27 10° NNE
Okean 3 3.5 02:02:44 10° N 02:07:04 83° E 02:08:39 39° SSE
Aureole 2 Rocket 4.3 02:06:15 10° WNW 02:07:41 17° W 02:07:41 17° W
Cosmos 1825 2.3 02:08:01 46° SSE 02:08:58 66° E 02:12:45 10° NNE
Nadezhda 3 Rocket 4.4 02:03:49 10° NNW 02:09:46 50° W 02:12:40 29° SSW
Cosmos 1356 Rocket 4.1 02:12:40 33° WSW 02:13:51 42° WNW 02:17:45 10° N
Meteor 2-13 Rocket 4.4 02:11:57 30° S 02:15:09 83° E 02:21:19 10° N
CZ-4C R/B 2.8 02:10:14 10° NW 02:17:15 82° SW 02:25:00 10° SSE
Cosmos 1782 Rocket 3.5 02:16:41 39° S 02:18:16 79° E 02:22:40 10° NNE
ATLAS 3B R/B 4.0 02:16:34 10° WNW 02:21:23 20° WSW 02:22:50 19° SW
USA 238 DEB 4.2 02:15:17 10° NW 02:21:50 43° WSW 02:25:02 27° SSW
USA 238 4.1 02:15:24 10° NW 02:21:56 43° WSW 02:25:11 27° S
Cosmos 1408 2.5 02:20:57 48° S 02:21:58 87° WNW 02:25:46 10° N
BREEZE-M TANK 2.0 02:17:18 10° W 02:22:14 64° SSW 02:24:45 10° ESE
Cosmos 1862 3.3 02:21:31 43° SSW 02:22:42 70° W 02:26:44 10° N
Cosmos 1727 Rocket 4.2 02:19:26 10° N 02:25:43 71° E 02:30:13 20° SSE
Meteor 1-27 Rocket 4.1 02:20:05 10° NNW 02:25:48 52° W 02:28:29 29° SSW
Cosmos 1184 Rocket 4.0 02:25:20 29° SE 02:26:19 36° E 02:29:27 10° NNE
PSLV R/B 3.6 02:23:08 10° NNE 02:27:21 66° E 02:29:02 34° S
SL-16 R/B 4.3 02:30:39 10° W 02:32:07 11° W 02:33:13 10° WSW
Iridium 4 Rocket 3.8 02:27:47 10° N 02:32:11 52° E 02:35:19 20° SSE
Cosmos 2263 Rocket 2.6 02:31:41 27° S 02:34:40 55° ESE 02:40:13 10° NE
Cosmos 44 3.5 02:34:03 29° SW 02:36:55 86° NW 02:42:26 10° NE
Cosmos 1975 Rocket 3.3 02:34:28 10° NNW 02:38:47 52° W 02:40:23 34° SSW
USA 234 3.4 02:40:08 10° SSE 02:46:29 52° SW 02:52:51 10° WNW
Cosmos 1536 Rocket 3.8 02:46:16 10° N 02:50:38 69° E 02:53:38 20° SSE
Cosmos 1606 4.3 02:48:02 10° NW 02:50:56 21° W 02:51:38 20° WSW
BREEZE-M DEB (TANK) 3.5 02:37:36 10° WSW 02:51:00 90° NNW 02:54:44 10° ENE
Cosmos 921 Rocket 4.2 02:52:55 20° WSW 02:54:58 31° WNW 02:58:46 10° N
NOSS 3-2 (C) 3.9 02:48:25 10° NW 02:55:49 69° SW 03:03:46 10° SSE
Cosmos 1190 Rocket 4.3 02:53:21 10° NNW 02:58:36 68° ENE 03:03:46 10° SSE
Landsat 4 4.0 02:57:25 33° SSW 02:58:45 50° W 03:02:28 10° NNW
Cosmos 1943 3.7 02:54:18 10° NW 02:59:35 40° WSW 03:02:25 24° SSW
Meteor 1-18 Rocket 4.3 02:54:17 10° N 02:59:56 77° ENE 03:05:06 13° SSE
CENTAUR R/B 3.8 02:53:31 10° NW 03:00:57 54° NE 03:08:59 10° ESE
CZ-2C R/B 4.4 02:57:59 10° NNW 03:01:43 20° WNW 03:05:23 10° WSW
Cosmos 2151 Rocket 3.5 03:01:40 26° S 03:04:09 89° E 03:08:38 10° N
Cosmos 1371 Rocket 4.1 03:02:49 24° SSW 03:06:10 80° ESE 03:11:33 10° NNE
Cosmos 2056 Rocket 3.8 03:04:13 21° S 03:07:43 62° ESE 03:12:54 10° NNE
IRS-P3 4.1 03:02:37 10° NNE 03:08:00 85° WNW 03:11:33 22° SSW
SL-16 R/B 3.6 03:02:28 10° SE 03:08:22 46° ENE 03:14:16 10° N
Cosmos 2084 Rocket 4.5 03:06:28 15° W 03:09:08 34° NW 03:12:39 10° NNE
SL-24 DEB 4.2 03:09:37 10° N 03:14:17 84° E 03:17:36 19° S
Cosmos 407 Rocket 3.6 03:12:09 10° NNW 03:17:19 79° ENE 03:22:31 10° SSE
SL-27 R/B 3.4 03:13:57 10° NNW 03:17:31 51° ENE 03:21:06 10° SE
SL-08 R/B 3.5 03:14:46 19° S 03:18:17 61° WSW 03:23:10 10° NNW
NOSS 3-4 (A) 3.6 03:15:49 19° SW 03:20:35 83° NW 03:27:16 10° NE
NOSS 3-4 (C) 3.6 03:15:55 19° SW 03:20:40 84° NW 03:27:22 10° NE
Cosmos 1242 Rocket 3.0 03:17:47 10° NNW 03:21:06 41° W 03:22:33 26° SSW
NOSS 3-2 (A) 4.3 03:14:12 10° NW 03:21:12 44° WSW 03:28:38 10° S
Cosmos 676 Rocket 4.4 03:16:24 10° NNW 03:21:36 65° ENE 03:26:44 10° SSE
Okean 1 Rocket 3.7 03:19:31 14° SSE 03:23:10 52° E 03:27:30 10° NNE
Okean 1 3.4 03:21:00 10° N 03:25:00 80° E 03:28:35 13° SSE
Resurs 1-4 Rocket 3.5 03:21:39 10° NNE 03:26:29 34° E 03:31:16 10° SSE
GP-B 3.1 03:22:12 10° N 03:26:42 89° ESE 03:30:12 16° S
IRAS Rocket 4.3 03:22:52 10° NNE 03:28:21 67° WNW 03:32:29 18° SSW
Tiangong 1 2.0 03:29:02 27° SSW 03:29:02 27° SSW 03:31:42 10° SE
IRS-1D 4.5 03:24:43 10° NNE 03:29:35 42° E 03:34:21 10° S
RESURS DK-1 2.3 03:27:31 22° SSW 03:30:08 84° WNW 03:34:20 10° NNE
Cosmos 1867 4.0 03:26:33 10° NW 03:31:41 41° WSW 03:36:45 10° S
Cosmos 1812 2.7 03:30:35 10° NNW 03:34:28 69° W 03:37:33 16° S
Cosmos 1821 Rocket 4.3 03:30:29 11° S 03:36:40 73° E 03:43:04 10° NNE
AQUA 4.0 03:32:20 10° N 03:37:03 63° WNW 03:40:36 17° SSW
UNK 4.3 03:35:27 10° SSE 03:39:59 61° ENE 03:44:35 10° N
Meteor 1-20 Rocket 4.3 03:36:12 15° SSW 03:41:09 84° WNW 03:47:00 10° N
ERS-2 2.7 03:40:23 10° N 03:43:57 45° WNW 03:46:25 18° SW
NPP 4.1 03:39:26 10° N 03:44:39 51° WNW 03:48:54 15° SW
CBERS 1 LM4 rocket 4.5 03:40:50 10° N 03:45:51 71° WNW 03:49:52 15° SSW
Cosmos 1954 Rocket 4.0 03:45:48 10° NNW 03:51:01 88° ENE 03:56:12 10° SSE
Cosmos 1624 Rocket 4.4 03:48:43 15° SW 03:52:51 53° WNW 03:58:01 10° NNE
Cosmos 909 Rocket 4.4 03:50:14 14° SW 03:55:51 77° NW 04:03:32 10° NE
ADEOS 3.7 03:51:58 10° N 03:57:09 64° WNW 04:01:51 13° SSW
OTV 4 2.6 04:00:13 12° S 04:00:13 12° S 04:01:01 10° SSE
Cosmos 1025 Rocket 3.2 03:55:55 10° N 04:00:12 73° E 04:04:30 10° SSE
COSMOS 2487 3.7 03:57:12 10° N 04:00:45 46° ENE 04:04:14 10° SE
USA 129 4.4 03:59:04 10° SE 04:00:50 22° ENE 04:02:35 10° NNE
USA 161 2.2 03:59:18 16° SSW 04:01:04 33° W 04:03:44 10° NNW
SME Rocket 2.8 04:01:21 10° SSE 04:05:06 88° WSW 04:09:14 10° NNW
CZ-4C R/B 4.1 04:00:05 10° WNW 04:05:09 21° WSW 04:10:28 10° SSW
Meteor 2-21 Rocket 4.5 04:00:02 10° S 04:06:06 86° WNW 04:12:14 10° N
ARIANE 5 R/B 2.5 04:03:56 10° NNE 04:08:57 81° WNW 04:13:57 10° SSW
Abrixas rocket 2.6 04:06:57 14° SW 04:09:40 50° SSE 04:12:56 10° E
CZ-2D R/B 2.3 04:06:34 10° NNE 04:12:01 80° ESE 04:17:30 10° SSW
Meteor 2-15 4.5 04:06:23 10° NNW 04:12:33 78° W 04:18:40 10° S
Cosmos 1452 Rocket 3.5 04:08:50 10° SSW 04:14:00 83° WNW 04:19:18 10° NNE
COSMOS 2406 3.8 04:10:10 10° NW 04:15:30 39° WSW 04:20:47 10° S
Cosmos 1844 4.2 04:10:09 10° S 04:15:42 60° ESE 04:21:23 10° NNE
MTI 3.8 04:12:34 10° SSE 04:15:53 84° WSW 04:19:13 10° NNW
Cosmos 1544 Rocket 4.3 04:12:01 10° S 04:16:20 52° E 04:20:38 10° NNE
Cosmos 1844 Rocket 2.8 04:11:36 10° SSW 04:17:16 81° ESE 04:22:58 10° NNE
Cosmos 2263 Rocket 3.5 04:14:00 10° WSW 04:18:55 29° NW 04:23:52 10° N
Cosmos 614 Rocket 4.4 04:13:43 10° NNW 04:18:56 69° ENE 04:24:02 10° SSE
Cosmos 1602 3.7 04:16:48 10° SSW 04:20:39 71° W 04:24:30 10° N
Cosmos 1536 2.9 04:19:49 10° S 04:23:54 89° E 04:28:00 10° N
UNK 4.1 04:17:44 10° SW 04:24:40 34° SSE 04:27:26 10° E
Cosmos 1420 Rocket 4.3 04:22:48 10° S 04:28:04 70° ESE 04:33:22 10° NNE
Cosmos 2278 Rocket 2.8 04:25:54 10° S 04:31:24 54° ESE 04:36:57 10° NE
Timation 2 Rocket 4.2 04:27:46 10° NNW 04:34:02 77° ENE 04:40:04 10° SSE
Cosmos 1892 Rocket 3.5 04:29:45 10° NNW 04:34:08 74° W 04:38:27 10° S
UNKNOWN OBJECT B 2.9 04:31:51 10° N 04:35:56 77° WNW 04:40:01 10° SSW
PSLV R/B 4.5 04:33:25 10° NNE 04:37:34 60° ESE 04:41:40 10° S
CZ-2C R/B 3.8 04:34:26 10° SSE 04:39:10 85° WSW 04:43:59 10° NNW
Meteor 2-4 Rocket 3.7 04:36:55 10° NNW 04:42:19 65° W 04:47:36 10° S
CZ-4B R/B 3.9 04:37:20 10° NNE 04:42:56 59° ESE 04:48:31 10° S
